VOE75PK LFBO-LFST

Flight info

Callsign VOE75PK
Flight time N/A
Altitude 36000
Route MEN7B/32R MEN DCT NINUN DCT LATAM DCT ETREK DCT LTP DCT SOPLO DCT OMASI DCT KINNI DCT GILIR DCT PENDU DCT LUL
Aircraft A320/M-SDE3FGHIRWY/LB1

Departure

Time 2026-05-04 19:44
Airport Toulouse-Blagnac Airport (LFBO)

Arrival

Time N/A
Airport Strasbourg Airport (LFST)
Time Latitude Longitude Altitude Speed Heading
2026-05-04 19:02 43.62802 1.37633 503 ft 0 kts 58°
2026-05-04 19:33 43.62800 1.37630 503 ft 2 kts 58°
2026-05-04 19:34 43.62794 1.37616 503 ft 3 kts 58°
2026-05-04 19:34 43.62784 1.37593 503 ft 3 kts 76°
2026-05-04 19:34 43.62784 1.37582 503 ft 1 kts 142°
2026-05-04 19:34 43.62795 1.37570 503 ft 3 kts 142°
2026-05-04 19:35 43.62804 1.37560 503 ft 0 kts 142°
2026-05-04 19:38 43.62798 1.37567 503 ft 5 kts 141°
2026-05-04 19:38 43.62780 1.37587 503 ft 3 kts 141°
2026-05-04 19:39 43.62751 1.37620 503 ft 4 kts 141°
2026-05-04 19:39 43.62709 1.37617 503 ft 5 kts 227°
2026-05-04 19:39 43.62672 1.37556 503 ft 12 kts 234°
2026-05-04 19:39 43.62622 1.37450 503 ft 13 kts 236°
2026-05-04 19:40 43.62564 1.37348 503 ft 11 kts 219°
2026-05-04 19:40 43.62484 1.37381 503 ft 13 kts 144°
2026-05-04 19:40 43.62419 1.37446 503 ft 9 kts 142°
2026-05-04 19:40 43.62359 1.37508 504 ft 10 kts 143°
2026-05-04 19:41 43.62318 1.37550 504 ft 5 kts 143°
2026-05-04 19:41 43.62268 1.37602 504 ft 17 kts 143°
2026-05-04 19:41 43.62164 1.37710 504 ft 19 kts 143°
2026-05-04 19:41 43.62039 1.37840 505 ft 25 kts 143°
2026-05-04 19:42 43.61905 1.37977 504 ft 23 kts 143°
2026-05-04 19:42 43.61789 1.38099 504 ft 19 kts 144°
2026-05-04 19:42 43.61698 1.38176 503 ft 12 kts 169°
2026-05-04 19:42 43.61642 1.38137 504 ft 7 kts 229°
2026-05-04 19:43 43.61613 1.38083 504 ft 9 kts 235°
2026-05-04 19:43 43.61588 1.38000 503 ft 6 kts 290°
2026-05-04 19:43 43.61621 1.37961 503 ft 14 kts 321°
2026-05-04 19:43 43.61897 1.37671 504 ft 85 kts 322°
2026-05-04 19:44 43.62536 1.37005 504 ft 143 kts 322°
2026-05-04 19:44 43.63361 1.36143 993 ft 147 kts 320°
2026-05-04 19:44 43.64175 1.35283 1686 ft 147 kts 318°
2026-05-04 19:44 43.64972 1.34410 2310 ft 146 kts 319°
2026-05-04 19:45 43.65765 1.33541 2908 ft 145 kts 319°
2026-05-04 19:45 43.66556 1.32671 3490 ft 145 kts 319°
2026-05-04 19:45 43.67364 1.31770 3891 ft 159 kts 319°
2026-05-04 19:45 43.68285 1.30730 4143 ft 184 kts 319°
2026-05-04 19:46 43.69329 1.29536 4475 ft 207 kts 319°
2026-05-04 19:46 43.70501 1.28184 4863 ft 231 kts 319°
2026-05-04 19:46 43.71814 1.26712 5322 ft 254 kts 325°
2026-05-04 19:46 43.73480 1.25867 6075 ft 267 kts 353°
2026-05-04 19:47 43.75353 1.26272 6912 ft 278 kts 23°
2026-05-04 19:47 43.76846 1.28003 7716 ft 288 kts 56°
2026-05-04 19:47 43.77584 1.30602 8540 ft 294 kts 75°
2026-05-04 19:47 43.78092 1.33325 9405 ft 298 kts 76°
2026-05-04 19:48 43.78587 1.36134 10187 ft 306 kts 77°
2026-05-04 19:48 43.79105 1.39105 10461 ft 330 kts 77°
2026-05-04 19:48 43.79667 1.42293 10673 ft 353 kts 76°
2026-05-04 19:48 43.80274 1.45675 11076 ft 368 kts 76°
2026-05-04 19:49 43.80899 1.49137 11753 ft 373 kts 76°
2026-05-04 19:49 43.81536 1.52645 12480 ft 377 kts 76°
2026-05-04 19:49 43.82192 1.56184 13217 ft 381 kts 76°
2026-05-04 19:49 43.82995 1.59697 13918 ft 386 kts 67°
2026-05-04 19:50 43.84385 1.62904 14538 ft 391 kts 56°
2026-05-04 19:50 43.85941 1.65980 15309 ft 390 kts 56°
2026-05-04 19:50 43.87515 1.69061 15962 ft 393 kts 56°
2026-05-04 19:50 43.89106 1.72164 16579 ft 397 kts 56°
2026-05-04 19:51 43.90717 1.75303 17208 ft 401 kts 57°
2026-05-04 19:51 43.92340 1.78473 17826 ft 405 kts 57°
2026-05-04 19:51 43.93972 1.81673 18434 ft 408 kts 57°
2026-05-04 19:51 43.95624 1.84921 18860 ft 415 kts 57°
2026-05-04 19:52 43.97297 1.88218 19372 ft 420 kts 57°
2026-05-04 19:52 43.98982 1.91545 19910 ft 423 kts 57°
2026-05-04 19:52 44.00672 1.94889 20582 ft 419 kts 57°
2026-05-04 19:52 44.02315 1.98131 21822 ft 404 kts 57°
2026-05-04 19:53 44.03928 2.01314 22597 ft 403 kts 57°
2026-05-04 19:53 44.05542 2.04515 23185 ft 405 kts 58°
2026-05-04 19:53 44.07163 2.07739 23682 ft 409 kts 58°
2026-05-04 19:53 44.08804 2.10997 24121 ft 412 kts 58°
2026-05-04 19:54 44.10454 2.14278 24580 ft 415 kts 58°
2026-05-04 19:54 44.12112 2.17579 25037 ft 418 kts 58°
2026-05-04 19:54 44.13782 2.20907 25478 ft 420 kts 58°
2026-05-04 19:54 44.15459 2.24249 25915 ft 423 kts 58°
2026-05-04 19:55 44.17149 2.27622 26344 ft 425 kts 58°
2026-05-04 19:55 44.18824 2.30966 26763 ft 428 kts 59°
2026-05-04 19:55 44.20550 2.34418 27176 ft 430 kts 59°
2026-05-04 19:55 44.22264 2.37851 27578 ft 432 kts 59°
2026-05-04 19:56 44.23987 2.41303 27974 ft 435 kts 59°
2026-05-04 19:56 44.25696 2.44732 28368 ft 437 kts 59°
2026-05-04 19:56 44.27435 2.48223 28747 ft 439 kts 59°
2026-05-04 19:56 44.29179 2.51736 29131 ft 442 kts 59°
2026-05-04 19:57 44.30932 2.55277 29500 ft 444 kts 59°
2026-05-04 19:57 44.32688 2.58832 29859 ft 446 kts 59°
2026-05-04 19:57 44.34454 2.62410 30175 ft 449 kts 59°
2026-05-04 19:57 44.36233 2.66008 30443 ft 452 kts 59°
2026-05-04 19:58 44.38027 2.69633 30701 ft 455 kts 59°
2026-05-04 19:58 44.39829 2.73283 30947 ft 458 kts 59°
2026-05-04 19:58 44.41643 2.76966 31199 ft 461 kts 60°
2026-05-04 19:58 44.43464 2.80671 31442 ft 464 kts 60°
2026-05-04 19:59 44.45293 2.84399 31668 ft 466 kts 60°
2026-05-04 19:59 44.47134 2.88154 31905 ft 469 kts 60°
2026-05-04 19:59 44.48985 2.91928 32139 ft 472 kts 60°
2026-05-04 19:59 44.50850 2.95732 32363 ft 475 kts 60°
2026-05-04 20:00 44.52723 2.99561 32585 ft 477 kts 60°
2026-05-04 20:00 44.54603 3.03412 32805 ft 479 kts 60°
2026-05-04 20:00 44.56489 3.07286 33017 ft 482 kts 60°
2026-05-04 20:00 44.58377 3.11179 33221 ft 484 kts 60°
2026-05-04 20:01 44.60251 3.15043 33398 ft 486 kts 60°
2026-05-04 20:01 44.62098 3.19018 33575 ft 486 kts 62°
2026-05-04 20:01 44.63834 3.23093 33736 ft 487 kts 64°
2026-05-04 20:01 44.65506 3.27311 33891 ft 488 kts 66°
2026-05-04 20:02 44.67113 3.31516 34018 ft 489 kts 66°
2026-05-04 20:02 44.68698 3.35688 34130 ft 491 kts 66°
2026-05-04 20:02 44.70326 3.39921 34250 ft 493 kts 65°
2026-05-04 20:02 44.71980 3.44150 34366 ft 494 kts 65°
2026-05-04 20:03 44.73659 3.48376 34486 ft 496 kts 64°
2026-05-04 20:03 44.75356 3.52614 34605 ft 497 kts 64°
2026-05-04 20:03 44.77056 3.56847 34728 ft 498 kts 64°
2026-05-04 20:03 44.78760 3.61093 34845 ft 498 kts 64°
2026-05-04 20:04 44.80459 3.65347 34975 ft 498 kts 64°
2026-05-04 20:04 44.82135 3.69563 35490 ft 489 kts 64°
2026-05-04 20:04 44.83783 3.73733 35840 ft 486 kts 64°
2026-05-04 20:04 44.85422 3.77893 35946 ft 485 kts 64°
2026-05-04 20:05 44.87055 3.82046 35984 ft 483 kts 64°
2026-05-04 20:05 44.90274 3.90269 35970 ft 481 kts 64°
2026-05-04 20:06 44.93533 3.98589 35980 ft 481 kts 64°
2026-05-04 20:06 44.96769 4.06865 35980 ft 481 kts 64°
2026-05-04 20:07 44.99968 4.15086 35983 ft 481 kts 64°
2026-05-04 20:07 45.03192 4.23376 35988 ft 481 kts 64°
2026-05-04 20:08 45.06403 4.31676 35995 ft 481 kts 64°
2026-05-04 20:08 45.09611 4.40002 35998 ft 481 kts 64°
2026-05-04 20:09 45.12818 4.48330 36001 ft 481 kts 64°
2026-05-04 20:09 45.16018 4.56665 35999 ft 481 kts 64°
2026-05-04 20:10 45.19207 4.65005 36000 ft 481 kts 64°
2026-05-04 20:10 45.22394 4.73354 36001 ft 481 kts 64°
2026-05-04 20:11 45.25542 4.81658 36004 ft 481 kts 64°
2026-05-04 20:11 45.28712 4.90023 36005 ft 481 kts 64°
2026-05-04 20:12 45.31880 4.98402 36010 ft 481 kts 64°
2026-05-04 20:12 45.35051 5.06837 36008 ft 481 kts 64°
2026-05-04 20:13 45.38206 5.15229 36012 ft 481 kts 64°
2026-05-04 20:13 45.41331 5.23565 36010 ft 481 kts 64°
2026-05-04 20:14 45.44467 5.31974 36010 ft 481 kts 64°
2026-05-04 20:14 45.47634 5.40362 36010 ft 481 kts 60°
2026-05-04 20:15 45.51887 5.47719 36012 ft 483 kts 42°
2026-05-04 20:15 45.56909 5.54088 36011 ft 483 kts 42°
2026-05-04 20:16 45.61923 5.60490 36012 ft 483 kts 42°
2026-05-04 20:16 45.66930 5.66903 36010 ft 483 kts 42°
2026-05-04 20:17 45.71897 5.73286 36013 ft 483 kts 42°
2026-05-04 20:17 45.76891 5.79721 36014 ft 483 kts 42°
2026-05-04 20:18 45.81888 5.86158 36017 ft 483 kts 42°
2026-05-04 20:18 45.86883 5.92589 36013 ft 482 kts 42°
2026-05-04 20:19 45.91875 5.99031 36010 ft 483 kts 42°
2026-05-04 20:19 45.96863 6.05492 36009 ft 483 kts 42°
2026-05-04 20:20 46.01001 6.10870 36012 ft 483 kts 42°
2026-05-04 20:20 46.06213 6.16935 36015 ft 482 kts 30°
2026-05-04 20:20 46.09192 6.19112 36036 ft 479 kts 19°
2026-05-04 20:21 46.12357 6.20567 36031 ft 476 kts 10°
2026-05-04 20:21 46.22167 6.21529 36029 ft 471 kts 358°
2026-05-04 20:22 46.28728 6.21714 36027 ft 472 kts 358°
2026-05-04 20:22 46.35297 6.21897 36029 ft 472 kts 358°
2026-05-04 20:23 46.41864 6.22093 36033 ft 472 kts 358°
2026-05-04 20:23 46.48433 6.22284 36034 ft 472 kts 358°
2026-05-04 20:24 46.55002 6.22459 36036 ft 472 kts 357°
2026-05-04 20:24 46.61571 6.22634 36036 ft 472 kts 357°
2026-05-04 20:25 46.68139 6.22817 36035 ft 472 kts 358°
2026-05-04 20:25 46.74656 6.23002 36032 ft 472 kts 358°
2026-05-04 20:26 46.81220 6.23196 36031 ft 471 kts 358°
2026-05-04 20:26 46.87778 6.23392 36031 ft 471 kts 358°
2026-05-04 20:27 46.94336 6.23577 36029 ft 471 kts 358°
2026-05-04 20:27 47.00890 6.23762 36027 ft 471 kts 357°
2026-05-04 20:28 47.07375 6.23131 36020 ft 469 kts 356°
2026-05-04 20:28 47.13916 6.23614 36020 ft 472 kts
2026-05-04 20:29 47.20455 6.24583 36019 ft 472 kts
2026-05-04 20:29 47.27000 6.25413 36020 ft 471 kts
2026-05-04 20:30 47.33544 6.26048 35283 ft 473 kts
2026-05-04 20:30 47.36804 6.26342 34803 ft 467 kts
2026-05-04 20:30 47.40043 6.26643 34271 ft 464 kts
2026-05-04 20:31 47.43260 6.26958 33686 ft 462 kts
2026-05-04 20:31 47.46411 6.27275 33098 ft 459 kts
2026-05-04 20:31 47.49620 6.27604 32605 ft 454 kts
2026-05-04 20:31 47.52722 6.27923 32078 ft 451 kts
2026-05-04 20:32 47.55846 6.28244 31584 ft 448 kts